Meteopurmerend
purmerend
Purmerend - Baaienwijk



My webcam  My webcam


waarschuwing voor Onweer Meer informatie blitzortung!


Regen radar Meer informatie rain snow radar


Bezoek onze andere website:

CandyAppleRed WebdesignWebdesign Purmerend Candy Apple Red

MeteopurmerendBlog

Template documentation
and downloads



Onweer van: 26-07-2021 13:00 tot: 21:00 waarschuwing voor: Onweer niveau: Geel info button
Enkele onweersbuien, lokaal met hagel en veel neerslag in korte tijd.Kans op blikseminslag, hagel en veel neerslag in korte tijd.Verkeer en buitenactiviteiten kunnen hinder ondervinden.Mijd open water en open gebied, schuil niet onder bomen.Volg weerberichten en waarschuwingen.

15 daagse weersverwachting Rouen (FR)

  • Overzicht
  • Per uur
  • 15 dagen
  • Extra
  • Vergelijk
  • Kaarten
  • Dagkaart
  • Meer »
  • Info
  • Statistieken
  • Directe link
    Temp 6h Neerslag Wind  
 06:21     21:44    Daglengte: 15:23 Vandaag
20:00
21°
1.6 mm
3
 06:23     21:43    Daglengte: 15:20 Morgen
02:00
16°
 
1
08:00
16°
0.9 mm
1
14:00
20°
0.9 mm
4
warningclass
20:00
18°
19.4 mm
3
 06:24     21:41    Daglengte: 15:17 Woensdag 28 Jul
02:00
15°
8.6 mm
3
08:00
15°
 
3
14:00
20°
6.3 mm
6
20:00
17°
26.9 mm
3
 06:25     21:40    Daglengte: 15:15 Donderdag 29 Jul
02:00
14°
28.7 mm
4
08:00
14°
 
4
Locatie info
Region: Haute-Normandie
Latitude: 49.4402°N
Longitude: 1.0894°E
21 masl
Postcode: 76000
Temp/Neerslag /Baro Onweer/Dauwpunt
    Temp Baro 1h Neerslag Dauwpunt Wind UV Bewolking  
 06:21     21:44    Daglengte: 15:23 Vandaag
15:00
20°
1012.0 hPa 0.8 mm
82%
17.4°
4
Windvlaag: 1 m/s
54%
16:00
20°
1012.1 hPa 0.5 mm
82%
17.2°
3
Windvlaag: 0.9 m/s
52%
17:00
21°
1012.0 hPa 0.3 mm
82%
17.0°
3
Windvlaag: 0.1 m/s
30%
18:00
21°
1011.9 hPa
76%
15.8°
3
Windvlaag: 0.3 m/s
13%
19:00
21°
1011.8 hPa
25%
15.0°
3
Windvlaag: 0.4 m/s
10%
20:00
21°
1011.8 hPa
17%
14.5°
3
Windvlaag: 0.1 m/s
10%
21:00
20°
1012.2 hPa
14%
14.8°
2
Windvlaag: 0.2 m/s
24%
22:00
18°
1012.6 hPa
14%
15.2°
1
Windvlaag: 1.8 m/s
25%
23:00
17°
1012.8 hPa
14%
15.3°
1
Windvlaag: 1.9 m/s
42%
 06:23     21:43    Daglengte: 15:20 Morgen
00:00
17°
1012.8 hPa
14%
15.4°
1
Windvlaag: 1 m/s
55%
01:00
16°
1012.7 hPa
14%
15.5°
1
Windvlaag: 0.9 m/s
71%
02:00
16°
1012.4 hPa
14%
15.1°
1
Windvlaag: 1.3 m/s
79%
03:00
16°
1012.1 hPa
14%
14.9°
1
Windvlaag: 1.5 m/s
80%
04:00
16°
1011.8 hPa
17%
14.8°
1
Windvlaag: 2.4 m/s
86%
05:00
16°
1011.5 hPa
77%
15.3°
1
Windvlaag: 1.9 m/s
86%
06:00
16°
1011.1 hPa
41%
15.5°
1
Windvlaag: 2.8 m/s
70%
07:00
16°
1011.6 hPa
80%
15.4°
1
Windvlaag: 2.2 m/s
79%
08:00
16°
1011.6 hPa 0.9 mm
82%
15.3°
1
Windvlaag: 2.5 m/s
86%
09:00
17°
1011.4 hPa 0.9 mm
82%
15.4°
2
Windvlaag: 3.6 m/s
81%
10:00
17°
1011.5 hPa
82%
15.3°
3
Windvlaag: 6 m/s
74%
11:00
18°
1011.6 hPa
82%
15.9°
4
Windvlaag: 6.4 m/s
71%
12:00
18°
1011.5 hPa
25%
16.1°
4
Windvlaag: 6.5 m/s
75%
13:00
19°
1011.3 hPa
64%
16.4°
4
Windvlaag: 6.6 m/s
77%
14:00
20°
1010.9 hPa
79%
15.5°
4
Windvlaag: 6.6 m/s
83%
15:00
19°
1010.7 hPa 1.2 mm
82%
15.6°
3
Windvlaag: 6.8 m/s
85%
16:00
19°
1010.4 hPa 1.6 mm
82%
16.2°
4
Windvlaag: 6.1 m/s
80% warningclass
17:00
18°
1010.2 hPa 4.1 mm
82%
16.2°
3
Windvlaag: 7.1 m/s
83%
18:00
18°
1010.0 hPa 4.2 mm
82%
14.8°
3
Windvlaag: 7.4 m/s
81%
19:00
18°
1010.0 hPa 4.2 mm
82%
14.2°
3
Windvlaag: 7.1 m/s
56% warningclass
20:00
18°
1009.9 hPa 4.1 mm
82%
13.0°
3
Windvlaag: 7 m/s
49%
21:00
18°
1010.3 hPa 4.3 mm
82%
12.6°
3
Windvlaag: 6.1 m/s
60%
22:00
17°
1010.9 hPa 4.3 mm
82%
12.7°
3
Windvlaag: 6.2 m/s
15%
23:00
17°
1011.3 hPa
74%
12.7°
3
Windvlaag: 5.2 m/s
16%
 06:24     21:41    Daglengte: 15:17 Woensdag 28 Jul
00:00
16°
1011.3 hPa
15%
13.0°
3
Windvlaag: 5.2 m/s
53%
01:00
16°
1011.4 hPa
14%
12.5°
4
Windvlaag: 5.3 m/s
20%
02:00
15°
1011.3 hPa
14%
11.9°
3
Windvlaag: 5.2 m/s
40%
03:00
15°
1011.1 hPa
14%
11.9°
3
Windvlaag: 5.2 m/s
15%
04:00
15°
1010.9 hPa
14%
11.8°
4
Windvlaag: 6.7 m/s
14%
05:00
15°
1011.0 hPa
14%
11.7°
4
Windvlaag: 6.8 m/s
23%
06:00
15°
1011.2 hPa
14%
11.8°
4
Windvlaag: 6.5 m/s
46%
07:00
15°
1011.5 hPa
17%
12.0°
3
Windvlaag: 6.4 m/s
61%
08:00
15°
1011.8 hPa
24%
12.4°
3
Windvlaag: 6.9 m/s
48%
09:00
16°
1012.1 hPa
14%
12.9°
4
Windvlaag: 6.6 m/s
43%
10:00
17°
1012.3 hPa
14%
12.9°
5
Windvlaag: 6 m/s
10%
11:00
18°
1012.1 hPa
21%
12.2°
5
Windvlaag: 5.9 m/s
28%
12:00
19°
1012.1 hPa
23%
11.4°
5
Windvlaag: 6.4 m/s
31%
13:00
20°
1011.7 hPa
29%
10.9°
5
Windvlaag: 6.6 m/s
54%
14:00
20°
1011.5 hPa 6.3 mm
34%
11.1°
6
Windvlaag: 7.1 m/s
42%
15:00
20°
1011.6 hPa 6.4 mm
30%
11.2°
6
Windvlaag: 6.3 m/s
50%
16:00
21°
1011.5 hPa
69%
12.1°
5
Windvlaag: 6.9 m/s
27%
17:00
21°
1011.2 hPa
65%
11.9°
5
Windvlaag: 8.2 m/s
46%
18:00
19°
1011.3 hPa 6.5 mm
22%
15.3°
5
Windvlaag: 8.6 m/s
61%
19:00
19°
1011.4 hPa 7.0 mm
21%
14.1°
4
Windvlaag: -3.4 m/s
79%
20:00
17°
1011.6 hPa 7.0 mm
21%
14.0°
3
Windvlaag: -0.2 m/s
53%
21:00
17°
1011.6 hPa
21%
13.7°
3
Windvlaag: 3 m/s
39%
22:00
17°
1011.9 hPa 7.1 mm
21%
13.9°
3
Windvlaag: 5 m/s
81%
23:00
16°
1011.9 hPa 7.2 mm
21%
13.3°
3
Windvlaag: 6.1 m/s
58%
 06:25     21:40    Daglengte: 15:15 Donderdag 29 Jul
00:00
16°
1012.0 hPa 7.4 mm
21%
12.2°
3
Windvlaag: 6.5 m/s
81%
01:00
15°
1012.0 hPa 7.1 mm
21%
12.0°
4
Windvlaag: 5.5 m/s
56%
02:00
14°
1011.9 hPa
21%
11.9°
4
Windvlaag: 6.2 m/s
23%
03:00
14°
1011.7 hPa
21%
12.0°
4
Windvlaag: 5.9 m/s
17%
04:00
14°
1011.8 hPa
21%
12.2°
4
Windvlaag: 5 m/s
48%
05:00
14°
1011.9 hPa
22%
12.1°
4
Windvlaag: 6.5 m/s
50%
06:00
13°
1012.2 hPa
21%
11.6°
4
Windvlaag: 6.3 m/s
54%
07:00
13°
1012.4 hPa
21%
11.5°
4
Windvlaag: 6.2 m/s
51%
08:00
14°
1012.8 hPa
21%
11.5°
4
Windvlaag: 5.8 m/s
60%
09:00
15°
1013.5 hPa
21%
12.3°
4
Windvlaag: 12.7 m/s
70%
10:00
16°
1013.5 hPa
21%
11.6°
4
Windvlaag: 11.1 m/s
81%
11:00
17°
1013.8 hPa
22%
9.8°
4
Windvlaag: 10.1 m/s
96%
12:00
17°
1013.9 hPa
24%
9.2°
4
Windvlaag: 10.3 m/s
100%
13:00
18°
1014.0 hPa
21%
10.6°
4
Windvlaag: 9.8 m/s
78%
14:00
19°
1013.7 hPa
21%
11.1°
4
Windvlaag: 9.7 m/s
30%
Temp/Neerslag /Baro Onweer/Dauwpunt
    Temp Baro Neerslag Dauwpunt Wind Bewolking  
 06:21     21:44    Daglengte: 15:23 Vandaag
17:00
21°
1012.0 hPa 1.6 mm 17.0°
3
30%
20:00
21°
1011.8 hPa   14.5°
3
10%
23:00
17°
1012.8 hPa   15.3°
1
42%
 06:23     21:43    Daglengte: 15:20 Morgen
02:00
16°
1012.4 hPa   15.1°
1
79%
05:00
16°
1011.5 hPa   15.3°
1
86%
08:00
16°
1011.6 hPa 0.9 mm 15.3°
1
86%
11:00
18°
1011.6 hPa 0.9 mm 15.9°
4
71%
14:00
20°
1010.9 hPa   15.5°
4
83%
17:00
18°
1010.2 hPa 6.9 mm 16.2°
3
83%
20:00
18°
1009.9 hPa 12.5 mm 13.0°
3
49%
23:00
17°
1011.3 hPa 8.6 mm 12.7°
3
16%
 06:24     21:41    Daglengte: 15:17 Woensdag 28 Jul
02:00
15°
1011.3 hPa   11.9°
3
40%
05:00
15°
1011.0 hPa   11.7°
4
23%
08:00
15°
1011.8 hPa   12.4°
3
48%
11:00
18°
1012.1 hPa   12.2°
5
28%
14:00
20°
1011.5 hPa 6.3 mm 11.1°
6
42%
17:00
21°
1011.2 hPa 6.4 mm 11.9°
5
46%
20:00
17°
1011.6 hPa 20.5 mm 14.0°
3
53%
23:00
16°
1011.9 hPa 14.3 mm 13.3°
3
58%
 06:25     21:40    Daglengte: 15:15 Donderdag 29 Jul
02:00
14°
1011.9 hPa 14.4 mm 11.9°
4
23%
05:00
14°
1011.9 hPa   12.1°
4
50%
08:00
14°
1012.8 hPa   11.5°
4
60%
11:00
17°
1013.8 hPa   9.8°
4
96%
14:00
19°
1013.7 hPa   11.1°
4
30%
17:00
20°
1014.3 hPa 20.0 mm 11.9°
7
1%
20:00
18°
1014.7 hPa 20.1 mm 12.2°
5
1%
23:00
13°
1015.4 hPa 20.1 mm 11.5°
3
1%
 06:27     21:38    Daglengte: 15:11 Vrijdag 30 Jul
02:00
12°
1015.6 hPa 20.1 mm 10.7°
3
1%
05:00
11°
1015.1 hPa 20.1 mm 10.6°
3
1%
08:00
13°
1015.4 hPa 20.1 mm 11.9°
3
1%
11:00
18°
1015.5 hPa 20.1 mm 13.3°
5
1%
14:00
19°
1015.0 hPa 20.2 mm 12.6°
5
1%
17:00
20°
1014.6 hPa 20.3 mm 12.3°
5
1%
20:00
19°
1014.3 hPa 20.4 mm 14.0°
4
1%
23:00
14°
1014.8 hPa 20.5 mm 12.8°
2
1%
 06:28     21:37    Daglengte: 15:09 Zaterdag 31 Jul
02:00
12°
1014.6 hPa 20.5 mm 11.5°
2
0%
05:00
12°
1013.7 hPa 20.5 mm 11.4°
2
0%
08:00
13°
1013.4 hPa 20.5 mm 12.3°
2
0%
11:00
18°
1012.9 hPa 21.2 mm 14.5°
3
1%
14:00
20°
1012.4 hPa 22.7 mm 13.8°
3
1%
17:00
21°
1011.6 hPa 24.7 mm 13.6°
3
0%
20:00
19°
1012.0 hPa 25.3 mm 13.5°
3
0%
23:00
13°
1013.4 hPa 25.3 mm 11.5°
2
0%
 06:29     21:35    Daglengte: 15:06 Zondag 01 Aug
02:00
12°
1013.5 hPa 25.3 mm 11.3°
3
0%
05:00
12°
1013.3 hPa 25.3 mm 11.3°
3
0%
08:00
13°
1014.1 hPa 25.3 mm 11.7°
3
0%
11:00
18°
1014.6 hPa 25.3 mm 11.0°
4
0%
14:00
20°
1014.7 hPa 25.4 mm 10.8°
5
0%
17:00
20°
1014.6 hPa 25.4 mm 11.6°
5
1%
20:00
18°
1014.9 hPa 25.5 mm 12.9°
4
0%
23:00
13°
1016.2 hPa 25.5 mm 10.9°
2
0%
 06:31     21:34    Daglengte: 15:03 Maandag 02 Aug
02:00
11°
1016.2 hPa 25.5 mm 9.4°
1
0%
05:00
11°
1015.9 hPa 25.5 mm 9.1°
0
1%
08:00
13°
1016.0 hPa 25.5 mm 10.3°
0
1%
11:00
18°
1016.1 hPa 25.5 mm 11.6°
1
1%
14:00
21°
1015.5 hPa 51.1 mm 11.3°
2
1%
20:00
19°
1014.3 hPa 51.2 mm 13.7°
3
1%
 06:32     21:32    Daglengte: 15:00 Dinsdag 03 Aug
02:00
12°
1014.9 hPa 51.4 mm 9.9°
1
0%
08:00
13°
1014.6 hPa 51.4 mm 11.2°
1
0%
14:00
22°
1013.7 hPa 51.4 mm 12.6°
3
1%
20:00
20°
1012.5 hPa 51.8 mm 14.3°
3
1%
 06:33     21:31    Daglengte: 14:58 Woensdag 04 Aug
02:00
12°
1013.5 hPa 51.9 mm 11.0°
1
1%
08:00
14°
1012.7 hPa 51.9 mm 12.1°
2
1%
14:00
18°
1012.6 hPa 52.2 mm 13.0°
5
1%
20:00
19°
1013.4 hPa 53.1 mm 11.9°
4
0%
 06:35     21:29    Daglengte: 14:54 Donderdag 05 Aug
02:00
12°
1015.3 hPa 53.2 mm 9.8°
1
0%
08:00
14°
1014.6 hPa 0.6 mm 12.3°
2
61%
14:00
21°
1014.7 hPa 0.8 mm 14.2°
3
66%
20:00
19°
1013.9 hPa 1.8 mm 14.2°
3
63%
 06:36     21:27    Daglengte: 14:51 Vrijdag 06 Aug
02:00
14°
1014.8 hPa 0.4 mm 12.3°
3
52%
08:00
14°
1014.8 hPa 0.3 mm 12.5°
3
49%
14:00
20°
1015.3 hPa 0.7 mm 13.8°
5
54%
20:00
18°
1015.1 hPa 0.7 mm 13.2°
4
47%
 06:38     21:26    Daglengte: 14:48 Zaterdag 07 Aug
02:00
13°
1015.9 hPa 0.1 mm 11.9°
3
42%
08:00
14°
1015.5 hPa 0.5 mm 12.4°
3
47%
14:00
21°
1015.5 hPa 0.5 mm 13.6°
4
60%
20:00
19°
1014.8 hPa 0.8 mm 13.9°
3
51%
 06:39     21:24    Daglengte: 14:45 Zondag 08 Aug
02:00
14°
1015.6 hPa 0.2 mm 12.0°
3
39%
08:00
14°
1015.4 hPa 0.3 mm 12.8°
3
54%
14:00
21°
1015.8 hPa 0.5 mm 13.7°
4
53%
20:00
19°
1015.6 hPa 0.7 mm 13.7°
3
45%
 06:40     21:22    Daglengte: 14:42 Maandag 09 Aug
02:00
13°
1017.2 hPa   12.2°
2
38%
08:00
14°
1017.4 hPa 0.4 mm 12.5°
2
40%
14:00
21°
1017.9 hPa 0.4 mm 13.9°
2
51%
20:00
20°
1017.4 hPa 0.4 mm 14.2°
2
51%
 06:42     21:21    Daglengte: 14:39 Dinsdag 10 Aug
02:00
14°
1018.6 hPa 0.1 mm 12.3°
1
47%
08:00
14°
1018.4 hPa 0.2 mm 12.8°
2
46%
14:00
22°
1018.5 hPa 0.5 mm 14.1°
2
51%
  CAPE Lifted Index Hail Supercell Tornado SRH 3km CL BTM PRES CL TOP PRES Swiss DWD icon SMHI TS
 06:21     21:44    Daglengte: 15:23 Vandaag
15:00 465 J/kg -2.2 K 0 % 0 % 0 % 0 m²/s² 0 0 0.65 80
16:00 597 J/kg -2.8 K 0 % 0 % 0 % 0 m²/s² 0 0 -0.31 80
17:00 629 J/kg -2.5 K 0 % 0 % 0 % 0 m²/s² 0 0 0.05 80
18:00 484 J/kg -2.0 K 0 % 0 % 0 % 0 m²/s² 0 0 1.39 1
19:00 226 J/kg -0.9 K 0 % 0 % 0 % 0 m²/s² 0 0 3.06 2
20:00 178 J/kg -0.6 K 0 % 0 % 0 % 0 m²/s² 0 0 3.66 1
21:00 97 J/kg -0.1 K 0 % 0 % 0 % 0 m²/s² 0 0 4.4 3
22:00 9 J/kg 0.4 K 0 % 0 % 0 % 0 m²/s² 0 0 4.9 3
23:00 0 J/kg 1.3 K 0 % 0 % 0 % 0 m²/s² 0 0 5.35 3
 06:23     21:43    Daglengte: 15:20 Morgen
00:00 0 J/kg 0.3 K 0 % 0 % 0 % 0 m²/s² 0 0 3.84 3
01:00 0 J/kg -0.5 K 0 % 0 % 0 % 0 m²/s² 0 0 2.5 3
02:00 0 J/kg -0.6 K 0 % 0 % 0 % 0 m²/s² 0 0 1.71 3
03:00 0 J/kg -0.5 K 0 % 0 % 0 % 0 m²/s² 0 0 0.88 3
04:00 0 J/kg -0.5 K 0 % 0 % 0 % 0 m²/s² 0 0 -0.38 3
05:00 20 J/kg 0.1 K 0 % 0 % 0 % 0 m²/s² 0 0 0.34 3
06:00 0 J/kg 0.2 K 0 % 0 % 0 % 0 m²/s² 0 0 0.23 3
07:00 0 J/kg 0.2 K 0 % 0 % 0 % 0 m²/s² 0 0 0.32 3
08:00 22 J/kg 0.3 K 0 % 0 % 0 % 0 m²/s² 0 0 0.54 3
09:00 95 J/kg 0.4 K 0 % 0 % 0 % 0 m²/s² 0 0 0.64 80
10:00 194 J/kg -0.4 K 0 % 0 % 0 % 0 m²/s² 0 0 -0.16 61
11:00 271 J/kg -0.7 K 0 % 0 % 0 % 0 m²/s² 0 0 -0.49 3
12:00 421 J/kg -1.4 K 0 % 0 % 0 % 0 m²/s² 0 0 -1.22 3
13:00 549 J/kg -2.0 K 0 % 0 % 0 % 0 m²/s² 0 0 -1.7 3
14:00 661 J/kg -2.6 K 0 % 0 % 0 % 0 m²/s² 0 0 -2.09 3
15:00 478 J/kg -2.0 K 0 % 0 % 0 % 0 m²/s² 0 0 -1.4 80
16:00 478 J/kg -2.5 K 0 % 0 % 0 % 0 m²/s² 0 0 -2.5 80
17:00 314 J/kg -1.6 K 0 % 0 % 0 % 0 m²/s² 0 0 -1.21 80
18:00 621 J/kg -2.6 K 0 % 0 % 0 % 0 m²/s² 0 0 -1.43 80
19:00 861 J/kg -3.5 K 0 % 0 % 0 % 0 m²/s² 0 0 -2.63 61
20:00 521 J/kg -2.0 K 0 % 0 % 0 % 0 m²/s² 0 0 0.01 80
21:00 136 J/kg -0.3 K 0 % 0 % 0 % 0 m²/s² 0 0 1.83 80
22:00 30 J/kg 0.7 K 0 % 0 % 0 % 0 m²/s² 0 0 2.83 80
23:00 0 J/kg 2.5 K 0 % 0 % 0 % 0 m²/s² 0 0 5.23 2
 06:24     21:41    Daglengte: 15:17 Woensdag 28 Jul
00:00 0 J/kg 3.5 K 0 % 0 % 0 % 0 m²/s² 0 0 6.38 2
01:00 0 J/kg 5.6 K 0 % 0 % 0 % 0 m²/s² 0 0 8.63 2
02:00 0 J/kg 5.4 K 0 % 0 % 0 % 0 m²/s² 0 0 8.88 3
03:00 0 J/kg 4.8 K 0 % 0 % 0 % 0 m²/s² 0 0 8.76 2
04:00 0 J/kg 4.3 K 0 % 0 % 0 % 0 m²/s² 0 0 7.96 2
05:00 0 J/kg 4.1 K 0 % 0 % 0 % 0 m²/s² 0 0 7.85 2
06:00 0 J/kg 4.0 K 0 % 0 % 0 % 0 m²/s² 0 0 6.79 2
07:00 0 J/kg 4.2 K 0 % 0 % 0 % 0 m²/s² 0 0 6.84 3
08:00 0 J/kg 4.6 K 0 % 0 % 0 % 0 m²/s² 0 0 7.21 3
09:00 7 J/kg 4.7 K 0 % 0 % 0 % 0 m²/s² 0 0 7.55 2
10:00 31 J/kg 4.1 K 0 % 0 % 0 % 0 m²/s² 0 0 7.46 2
11:00 42 J/kg 4.1 K 0 % 0 % 0 % 0 m²/s² 0 0 7.46 2
12:00 59 J/kg 3.8 K 0 % 0 % 0 % 0 m²/s² 0 0 7.43 2
13:00 58 J/kg 3.9 K 0 % 0 % 0 % 0 m²/s² 0 0 8.04 3
14:00 78 J/kg 3.7 K 0 % 0 % 0 % 0 m²/s² 0 0 8.29 2
15:00 70 J/kg 3.9 K 0 % 0 % 0 % 0 m²/s² 0 0 8.04 2
16:00 92 J/kg 3.4 K 0 % 0 % 0 % 0 m²/s² 0 0 6.94 2
17:00 114 J/kg 3.6 K 0 % 0 % 0 % 0 m²/s² 0 0 6.78 2
18:00 114 J/kg 3.5 K 0 % 0 % 0 % 0 m²/s² 0 0 7.61 2
19:00 137 J/kg 3.6 K 0 % 0 % 0 % 0 m²/s² 0 0 5.1 2
20:00 30 J/kg 5.1 K 0 % 0 % 0 % 0 m²/s² 0 0 11.07 2
21:00 75 J/kg 4.9 K 0 % 0 % 0 % 0 m²/s² 0 0 12.34 2
22:00 124 J/kg 5.6 K 0 % 0 % 0 % 0 m²/s² 0 0 12.56 2
23:00 89 J/kg 7.0 K 0 % 0 % 0 % 0 m²/s² 0 0 14.44 3
 06:25     21:40    Daglengte: 15:15 Donderdag 29 Jul
00:00 13 J/kg 7.9 K 0 % 0 % 0 % 0 m²/s² 0 0 15.61 1
01:00 19 J/kg 8.3 K 0 % 0 % 0 % 0 m²/s² 0 0 16.31 1
02:00 1 J/kg 9.3 K 0 % 0 % 0 % 0 m²/s² 0 0 16.74 2
03:00 3 J/kg 9.6 K 0 % 0 % 0 % 0 m²/s² 0 0 16.56 2
04:00 16 J/kg 9.5 K 0 % 0 % 0 % 0 m²/s² 0 0 16.04 2
05:00 0 J/kg 9.7 K 0 % 0 % 0 % 0 m²/s² 0 0 15.85 3
06:00 0 J/kg 9.6 K 0 % 0 % 0 % 0 m²/s² 0 0 14.43 3
07:00 0 J/kg 9.6 K 0 % 0 % 0 % 0 m²/s² 0 0 15.21 3
08:00 27 J/kg 9.6 K 0 % 0 % 0 % 0 m²/s² 0 0 15.54 3
09:00 50 J/kg 8.6 K 0 % 0 % 0 % 0 m²/s² 0 0 14.87 3
10:00 61 J/kg 7.6 K 0 % 0 % 0 % 0 m²/s² 0 0 14.02 3
11:00 58 J/kg 7.2 K 0 % 0 % 0 % 0 m²/s² 0 0 12.9 3
12:00 80 J/kg 6.3 K 0 % 0 % 0 % 0 m²/s² 0 0 11.55 3
13:00 133 J/kg 5.2 K 0 % 0 % 0 % 0 m²/s² 0 0 9.46 3
14:00 151 J/kg 4.5 K 0 % 0 % 0 % 0 m²/s² 0 0 8.25 2
Temp Baro Wind Neerslag
  EWN Forecast EWN WRFDA DWD ICON FMI HIRLAM MET Norway GFS
 06:21     21:44    Daglengte: 15:23 Vandaag
17:00 20.5° 1012.0 hPa 3.1 m/s 1.6 mm 24.0° 1010.6 hPa 3.9 m/s 2.1 mm 19.7° 1012.7 hPa 2.2 m/s 1.0 mm 20.5° 1011.4 hPa 3.3 m/s 0.0 mm 22.5° 1011.2 hPa 4.4 m/s
20:00 20.6° 1011.8 hPa 3.0 m/s 0.0 mm 22.2° 1010.6 hPa 3.8 m/s 2.2 mm 20.5° 1011.9 hPa 2.3 m/s 0.1 mm 20.8° 1011.8 hPa 4.3 m/s 0.0 mm 20.8° 1011.4 hPa 3.6 m/s
23:00 17.2° 1012.8 hPa 0.9 m/s 0.0 mm 17.7° 1011.8 hPa 1.2 m/s 2.2 mm 17.7° 1013.2 hPa 0.7 m/s 0.0 mm 17.2° 1012.9 hPa 0.9 m/s 0.0 mm 15.6° 1012.5 hPa 1.5 m/s
 06:23     21:43    Daglengte: 15:20 Morgen
02:00 16.2° 1012.4 hPa 1.0 m/s 0.0 mm 17.3° 1011.8 hPa 2.4 m/s 2.2 mm 16.2° 1012.8 hPa 0.8 m/s 0.0 mm 16.6° 1012.1 hPa 1.4 m/s 0.0 mm 15.9° 1012.2 hPa 1.6 m/s
05:00 15.9° 1011.5 hPa 1.2 m/s 0.0 mm 16.3° 1011.1 hPa 1.3 m/s 3.0 mm 15.9° 1011.6 hPa 0.8 m/s 0.0 mm 16.0° 1010.9 hPa 1.3 m/s 0.0 mm 15.2° 1011.5 hPa 1.1 m/s
08:00 16.2° 1011.6 hPa 1.1 m/s 0.9 mm 16.6° 1011.0 hPa 1.7 m/s 7.3 mm 16.0° 1012.1 hPa 0.7 m/s 0.2 mm 16.8° 1010.5 hPa 2.7 m/s 0.0 mm 15.8° 1011.2 hPa 2.1 m/s
11:00 18.0° 1011.6 hPa 3.9 m/s 0.9 mm 18.5° 1011.2 hPa 2.9 m/s 9.0 mm 17.9° 1011.8 hPa 3.3 m/s 0.5 mm 18.6° 1010.7 hPa 4.8 m/s 0.0 mm 18.5° 1011.1 hPa 3.1 m/s
14:00 19.6° 1010.9 hPa 3.8 m/s 0.0 mm 21.9° 1010.2 hPa 2.8 m/s 11.4 mm 19.5° 1011.1 hPa 3.9 m/s 0.2 mm 19.4° 1010.6 hPa 4.0 m/s 0.0 mm 20.7° 1010.8 hPa 4.6 m/s
17:00 18.3° 1010.2 hPa 3.4 m/s 6.9 mm 18.8° 1009.3 hPa 1.8 m/s 25.4 mm 18.0° 1010.2 hPa 3.1 m/s 2.1 mm 19.9° 1010.5 hPa 4.1 m/s 0.0 mm 20.6° 1010.0 hPa 5.3 m/s
20:00 18.3° 1009.9 hPa 3.1 m/s 12.5 mm 20.3° 1009.3 hPa 3.9 m/s 50.6 mm 18.0° 1009.5 hPa 2.6 m/s 1.8 mm 19.9° 1010.6 hPa 4.2 m/s 0.0 mm 18.6° 1009.8 hPa 3.8 m/s
23:00 16.6° 1011.3 hPa 2.7 m/s 8.6 mm 16.1° 1010.4 hPa 2.9 m/s 54.4 mm 16.6° 1010.4 hPa 1.6 m/s 2.1 mm 17.0° 1012.5 hPa 3.9 m/s 0.0 mm 15.3° 1011.5 hPa 3.4 m/s
 06:24     21:41    Daglengte: 15:17 Woensdag 28 Jul
02:00 15.2° 1011.3 hPa 3.5 m/s 0.0 mm 14.1° 1010.4 hPa 4.1 m/s 54.4 mm 15.3° 1010.3 hPa 3.2 m/s 0.0 mm 15.4° 1012.4 hPa 3.8 m/s 0.0 mm 13.0° 1011.7 hPa 3.5 m/s
05:00 14.6° 1011.0 hPa 3.9 m/s 0.0 mm 13.6° 1010.1 hPa 4.3 m/s 54.4 mm 14.3° 1011.0 hPa 2.8 m/s 0.0 mm 15.4° 1012.4 hPa 4.1 m/s 0.0 mm 12.0° 1012.0 hPa 3.5 m/s
08:00 14.9° 1011.8 hPa 3.3 m/s 0.0 mm 14.7° 1010.8 hPa 4.9 m/s 54.5 mm 14.7° 1011.6 hPa 2.8 m/s 0.0 mm 15.4° 1013.3 hPa 2.9 m/s 0.0 mm 13.5° 1012.3 hPa 4.0 m/s
11:00 17.9° 1012.1 hPa 4.9 m/s 0.0 mm 18.5° 1010.8 hPa 5.5 m/s 54.6 mm 17.9° 1012.4 hPa 4.8 m/s 0.0 mm 18.3° 1012.0 hPa 5.8 m/s
14:00 20.4° 1011.5 hPa 5.7 m/s 6.3 mm 21.0° 1010.4 hPa 6.0 m/s 54.6 mm 20.5° 1011.5 hPa 6.1 m/s 0.0 mm 20.9° 1011.4 hPa 6.6 m/s
17:00 20.9° 1011.2 hPa 5.4 m/s 6.4 mm 21.3° 1010.1 hPa 5.3 m/s 54.6 mm 21.0° 1011.8 hPa 5.5 m/s 0.0 mm 20.5° 1010.9 hPa 6.8 m/s
20:00 17.5° 1011.6 hPa 3.2 m/s 20.5 mm 17.3° 1010.0 hPa 3.1 m/s 57.5 mm 19.4° 1011.8 hPa 4.1 m/s 0.0 mm 17.9° 1010.6 hPa 5.2 m/s
23:00 15.8° 1011.9 hPa 2.8 m/s 14.3 mm 15.9° 1010.3 hPa 2.8 m/s 62.5 mm 16.5° 1012.7 hPa 2.3 m/s 0.0 mm 14.3° 1011.3 hPa 2.8 m/s
 06:25     21:40    Daglengte: 15:15 Donderdag 29 Jul
02:00 14.4° 1011.9 hPa 4.2 m/s 14.4 mm 13.8° 1010.2 hPa 4.3 m/s 62.6 mm 14.4° 1013.1 hPa 2.6 m/s 0.0 mm 12.9° 1011.6 hPa 4.3 m/s
05:00 13.5° 1011.9 hPa 4.0 m/s 0.0 mm 12.4° 1010.3 hPa 4.1 m/s 62.6 mm 14.0° 1013.2 hPa 2.7 m/s 0.0 mm 12.0° 1011.4 hPa 5.1 m/s
08:00 13.9° 1012.8 hPa 4.0 m/s 0.0 mm 13.9° 1011.1 hPa 5.6 m/s 62.6 mm 14.5° 1013.7 hPa 2.3 m/s 0.0 mm 12.6° 1012.3 hPa 5.5 m/s
11:00 16.8° 1013.8 hPa 4.4 m/s 0.0 mm 18.1° 1012.0 hPa 6.6 m/s 62.6 mm 16.5° 1014.3 hPa 3.8 m/s 0.0 mm 17.1° 1013.2 hPa 7.4 m/s
14:00 19.2° 1013.7 hPa 4.4 m/s 0.0 mm 19.8° 1012.9 hPa 6.9 m/s 62.6 mm 19.1° 1013.9 hPa 3.8 m/s 0.0 mm 19.1° 1014.0 hPa 6.8 m/s
17:00 20.1° 1014.3 hPa 6.9 m/s 20.0 mm 20.1° 1014.3 hPa 6.9 m/s 20.0 mm
20:00 18.1° 1014.7 hPa 5.5 m/s 20.1 mm 18.1° 1014.7 hPa 5.5 m/s 20.1 mm
23:00 13.3° 1015.4 hPa 3.3 m/s 20.1 mm 13.3° 1015.4 hPa 3.3 m/s 20.1 mm
 06:27     21:38    Daglengte: 15:11 Vrijdag 30 Jul
02:00 11.7° 1015.6 hPa 3.3 m/s 20.1 mm 11.7° 1015.6 hPa 3.3 m/s 20.1 mm
05:00 11.1° 1015.1 hPa 2.9 m/s 20.1 mm 11.1° 1015.1 hPa 2.9 m/s 20.1 mm
08:00 12.9° 1015.4 hPa 3.1 m/s 20.1 mm 12.9° 1015.4 hPa 3.1 m/s 20.1 mm
11:00 18.1° 1015.5 hPa 4.9 m/s 20.1 mm 18.1° 1015.5 hPa 4.9 m/s 20.1 mm
14:00 19.5° 1015.0 hPa 4.9 m/s 20.2 mm 19.5° 1015.0 hPa 4.9 m/s 20.2 mm
17:00 20.0° 1014.6 hPa 4.6 m/s 20.3 mm 20.0° 1014.6 hPa 4.6 m/s 20.3 mm
20:00 18.9° 1014.3 hPa 4.0 m/s 20.4 mm 18.9° 1014.3 hPa 4.0 m/s 20.4 mm
23:00 13.9° 1014.8 hPa 2.4 m/s 20.5 mm 13.9° 1014.8 hPa 2.4 m/s 20.5 mm
 06:28     21:37    Daglengte: 15:09 Zaterdag 31 Jul
02:00 12.4° 1014.6 hPa 2.2 m/s 20.5 mm 12.4° 1014.6 hPa 2.2 m/s 20.5 mm
05:00 11.9° 1013.7 hPa 2.3 m/s 20.5 mm 11.9° 1013.7 hPa 2.3 m/s 20.5 mm
08:00 13.4° 1013.4 hPa 2.1 m/s 20.5 mm 13.4° 1013.4 hPa 2.1 m/s 20.5 mm
11:00 18.3° 1012.9 hPa 3.1 m/s 21.2 mm 18.3° 1012.9 hPa 3.1 m/s 21.2 mm
14:00 20.0° 1012.4 hPa 2.7 m/s 22.7 mm 20.0° 1012.4 hPa 2.7 m/s 22.7 mm
17:00 20.8° 1011.6 hPa 3.3 m/s 24.7 mm 20.8° 1011.6 hPa 3.3 m/s 24.7 mm
20:00 18.8° 1012.0 hPa 3.3 m/s 25.3 mm 18.8° 1012.0 hPa 3.3 m/s 25.3 mm
23:00 13.0° 1013.4 hPa 2.5 m/s 25.3 mm 13.0° 1013.4 hPa 2.5 m/s 25.3 mm
 06:29     21:35    Daglengte: 15:06 Zondag 01 Aug
02:00 12.2° 1013.5 hPa 2.5 m/s 25.3 mm 12.2° 1013.5 hPa 2.5 m/s 25.3 mm
05:00 11.7° 1013.3 hPa 2.7 m/s 25.3 mm 11.7° 1013.3 hPa 2.7 m/s 25.3 mm
08:00 13.2° 1014.1 hPa 2.8 m/s 25.3 mm 13.2° 1014.1 hPa 2.8 m/s 25.3 mm
11:00 18.1° 1014.6 hPa 4.5 m/s 25.3 mm 18.1° 1014.6 hPa 4.5 m/s 25.3 mm
14:00 20.4° 1014.7 hPa 5.3 m/s 25.4 mm 20.4° 1014.7 hPa 5.3 m/s 25.4 mm
17:00 20.3° 1014.6 hPa 4.9 m/s 25.4 mm 20.3° 1014.6 hPa 4.9 m/s 25.4 mm
20:00 18.4° 1014.9 hPa 3.7 m/s 25.5 mm 18.4° 1014.9 hPa 3.7 m/s 25.5 mm
23:00 12.5° 1016.2 hPa 1.9 m/s 25.5 mm 12.5° 1016.2 hPa 1.9 m/s 25.5 mm
 06:31     21:34    Daglengte: 15:03 Maandag 02 Aug
02:00 11.2° 1016.2 hPa 0.5 m/s 25.5 mm 11.2° 1016.2 hPa 0.5 m/s 25.5 mm
05:00 11.0° 1015.9 hPa 0.3 m/s 25.5 mm 11.0° 1015.9 hPa 0.3 m/s 25.5 mm
08:00 13.3° 1016.0 hPa 0.3 m/s 25.5 mm 13.3° 1016.0 hPa 0.3 m/s 25.5 mm
11:00 18.0° 1016.1 hPa 0.8 m/s 25.5 mm 18.0° 1016.1 hPa 0.8 m/s 25.5 mm
14:00 20.6° 1015.5 hPa 1.6 m/s 25.5 mm 20.6° 1015.5 hPa 1.6 m/s 25.5 mm
20:00 19.0° 1014.3 hPa 2.9 m/s 25.7 mm 19.0° 1014.3 hPa 2.9 m/s 25.7 mm
 06:32     21:32    Daglengte: 15:00 Dinsdag 03 Aug
02:00 12.0° 1014.9 hPa 0.9 m/s 25.7 mm 12.0° 1014.9 hPa 0.9 m/s 25.7 mm
08:00 13.2° 1014.6 hPa 1.3 m/s 25.7 mm 13.2° 1014.6 hPa 1.3 m/s 25.7 mm
14:00 21.7° 1013.7 hPa 3.1 m/s 25.8 mm 21.7° 1013.7 hPa 3.1 m/s 25.8 mm
20:00 19.8° 1012.5 hPa 3.0 m/s 26.0 mm 19.8° 1012.5 hPa 3.0 m/s 26.0 mm
 06:33     21:31    Daglengte: 14:58 Woensdag 04 Aug
02:00 12.5° 1013.5 hPa 1.3 m/s 26.0 mm 12.5° 1013.5 hPa 1.3 m/s 26.0 mm
08:00 13.7° 1012.7 hPa 2.0 m/s 26.0 mm 13.7° 1012.7 hPa 2.0 m/s 26.0 mm
14:00 18.5° 1012.6 hPa 5.3 m/s 26.3 mm 18.5° 1012.6 hPa 5.3 m/s 26.3 mm
20:00 18.5° 1013.4 hPa 4.1 m/s 26.6 mm 18.5° 1013.4 hPa 4.1 m/s 26.6 mm
 06:35     21:29    Daglengte: 14:54 Donderdag 05 Aug
02:00 11.8° 1015.3 hPa 1.4 m/s 26.6 mm 11.8° 1015.3 hPa 1.4 m/s 26.6 mm
08:00 14.1° 1014.6 hPa 2.0 m/s 0.6 mm
14:00 20.9° 1014.7 hPa 3.1 m/s 0.8 mm
20:00 18.9° 1013.9 hPa 2.9 m/s 1.8 mm
 06:36     21:27    Daglengte: 14:51 Vrijdag 06 Aug
02:00 13.7° 1014.8 hPa 2.5 m/s 0.4 mm
08:00 13.9° 1014.8 hPa 3.4 m/s 0.3 mm
14:00 20.0° 1015.3 hPa 4.6 m/s 0.7 mm
20:00 18.5° 1015.1 hPa 3.8 m/s 0.7 mm
 06:38     21:26    Daglengte: 14:48 Zaterdag 07 Aug
02:00 13.3° 1015.9 hPa 2.7 m/s 0.1 mm
08:00 14.0° 1015.5 hPa 2.8 m/s 0.5 mm
14:00 20.6° 1015.5 hPa 4.0 m/s 0.5 mm
20:00 18.8° 1014.8 hPa 3.1 m/s 0.8 mm
 06:39     21:24    Daglengte: 14:45 Zondag 08 Aug
02:00 13.5° 1015.6 hPa 2.5 m/s 0.2 mm
08:00 14.2° 1015.4 hPa 2.7 m/s 0.3 mm
14:00 20.9° 1015.8 hPa 3.6 m/s 0.5 mm
20:00 18.8° 1015.6 hPa 3.0 m/s 0.7 mm
 06:40     21:22    Daglengte: 14:42 Maandag 09 Aug
02:00 13.5° 1017.2 hPa 1.8 m/s 0.0 mm
08:00 13.8° 1017.4 hPa 2.1 m/s 0.4 mm
14:00 21.1° 1017.9 hPa 2.5 m/s 0.4 mm
20:00 19.8° 1017.4 hPa 2.2 m/s 0.4 mm
 06:42     21:21    Daglengte: 14:39 Dinsdag 10 Aug
02:00 14.3° 1018.6 hPa 0.8 m/s 0.1 mm
08:00 14.4° 1018.4 hPa 1.6 m/s 0.2 mm
14:00 22.1° 1018.5 hPa 2.4 m/s 0.5 mm
FMI Hirlam - 7.5 km EWN WRFDA - 12 km DWD ICON - 7 km GFS - 25 km Basiskaart